Date String (YYYY-MM-DD hh:mm:ss) UTC,Instrument flags,absolute air pressure of the measurement (hPa),sample flow rate (lpm),inlet stack bypass flow (lpm),air temperature of the measurement (°C),ambient temperature measured by the external sensor (°C),aerosol sample conditioner tube jacket temperature (°C),OPC LED temperature (°C),internal box temperature (°C),relative humidity of the measurement (%),span deviation,mass concentration of particles derived from Lorenz-Mie calculation of OPC scattering (μg/m³),mass concentration of particles derived from Lorenz-Mie calculation of OPC scattering (μg/m³),mass concentration of particles derived from Lorenz-Mie calculation of OPC scattering (μg/m³)
DateTimeUTC,F1_M11,P_M11,Q1_M11,Q2_M11,T1_M11,T2_M11,T3_M11,T4_M11,T5_M11,U1_M11,ZSPAN_M11,X0_M11,X2_M11,X1_M11
2024-05-05 13:00:00,SystemResetWarning,0822.6,5.00,000.00,023.3,022.6,000.0,031.9,025.1,021.2,0000.0,0011.41,0004.10,0002.96
2024-05-05 13:01:00,SystemResetWarning,0822.6,5.00,000.00,023.3,022.6,000.0,031.9,025.2,021.4,0000.0,0011.83,0004.14,0002.98
2024-05-05 13:02:00,SystemResetWarning,0822.6,5.01,000.00,023.3,022.6,000.0,031.9,025.2,021.4,0000.0,0012.32,0004.15,0002.98
2024-05-05 13:03:00,SystemResetWarning,0822.8,5.01,000.00,023.3,022.6,000.0,031.9,025.2,021.4,0000.0,0012.79,0004.19,0003.01
2024-05-05 13:04:00,SystemResetWarning,0823.0,5.00,000.00,023.3,022.6,000.0,031.9,025.2,021.2,0000.0,0013.06,0004.21,0003.03
2024-05-05 13:05:00,SystemResetWarning,0823.1,5.00,000.00,023.3,022.6,000.0,031.9,025.2,021.2,0000.0,0013.43,0004.18,0003.03
2024-05-05 13:06:00,SystemResetWarning,0823.0,5.00,000.00,023.3,022.7,000.0,031.9,025.2,021.1,0000.0,0013.01,0004.17,0003.06
2024-05-05 13:07:00,SystemResetWarning,0822.9,5.00,000.00,023.3,022.7,000.0,031.9,025.2,021.1,0000.0,0013.11,0004.18,0003.09
2024-05-05 13:08:00,SystemResetWarning,0823.0,5.00,000.00,023.4,022.7,000.0,031.9,025.2,021.1,0000.0,0013.58,0004.20,0003.11
2024-05-05 13:09:00,SystemResetWarning,0823.0,5.00,000.00,023.4,022.7,000.0,031.9,025.2,021.2,0000.0,0014.30,0004.22,0003.11
2024-05-05 13:10:00,SystemResetWarning,0822.9,5.01,000.00,023.4,022.7,000.0,031.9,025.2,021.3,0000.0,0014.11,0004.20,0003.11
2024-05-05 13:11:00,SystemResetWarning,0822.4,5.00,000.00,023.4,022.7,000.0,031.9,025.2,021.1,0000.0,0013.52,0004.18,0003.12
2024-05-05 13:12:00,SystemResetWarning,0822.4,5.00,000.00,023.4,022.7,000.0,031.9,025.3,021.1,0000.0,0013.85,0004.17,0003.12
2024-05-05 13:13:00,SystemResetWarning,0822.4,5.00,000.00,023.4,022.7,000.0,031.9,025.3,021.1,0000.0,0013.66,0004.14,0003.13
2024-05-05 13:14:00,SystemResetWarning,0822.5,4.99,000.00,023.4,022.7,000.0,031.9,025.2,021.3,0000.0,0013.05,0004.11,0003.13
2024-05-05 13:15:00,SystemResetWarning,0822.4,5.00,000.00,023.4,022.7,000.0,031.9,025.2,021.3,0000.0,0013.81,0004.10,0003.13
2024-05-05 13:16:00,SystemResetWarning,0822.4,5.01,000.00,023.4,022.7,000.0,031.9,025.2,021.1,0000.0,0013.33,0004.12,0003.13
2024-05-05 13:17:00,SystemResetWarning,0822.4,4.98,000.00,023.4,022.7,000.0,031.9,025.2,021.0,0000.0,0013.64,0004.11,0003.13
2024-05-05 13:18:00,SystemResetWarning,0822.4,5.00,000.00,023.4,022.7,000.0,031.9,025.2,020.9,0000.0,0014.19,0004.09,0003.14
2024-05-05 13:19:00,SystemResetWarning,0822.4,5.01,000.00,023.4,022.7,000.0,031.9,025.2,021.1,0000.0,0013.81,0004.05,0003.14
2024-05-05 13:20:00,SystemResetWarning,0822.4,5.01,000.00,023.4,022.7,000.0,031.9,025.3,021.2,0000.0,0013.25,0004.03,0003.14
2024-05-05 13:21:00,SystemResetWarning,0822.4,4.99,000.00,023.4,022.7,000.0,031.9,025.2,021.2,0000.0,0013.68,0004.02,0003.14
2024-05-05 13:22:00,SystemResetWarning,0822.4,5.01,000.00,023.4,022.7,000.0,032.0,025.3,020.9,0000.0,0014.42,0004.00,0003.15
2024-05-05 13:23:00,SystemResetWarning,0822.4,5.01,000.00,023.4,022.7,000.0,032.0,025.3,020.8,0000.0,0013.71,0003.95,0003.14
2024-05-05 13:24:00,SystemResetWarning,0822.4,5.00,000.00,023.4,022.7,000.0,032.0,025.2,021.0,0000.0,0013.54,0004.03,0003.15
2024-05-05 13:25:00,SystemResetWarning,0822.4,4.99,000.00,023.4,022.7,000.0,031.9,025.2,021.2,0000.0,0013.54,0004.03,0003.15
2024-05-05 13:26:00,SystemResetWarning,0822.4,5.00,000.00,023.4,022.7,000.0,031.9,025.2,021.3,0000.0,0012.29,0004.05,0003.16
2024-05-05 13:27:00,SystemResetWarning,0822.3,5.01,000.00,023.4,022.7,000.0,031.9,025.2,021.6,0000.0,0011.77,0004.02,0003.16
2024-05-05 13:28:00,SystemResetWarning,0822.4,5.00,000.00,023.4,022.7,000.0,031.9,025.2,021.7,0000.0,0013.16,0004.02,0003.17
2024-05-05 13:29:00,SystemResetWarning,0822.4,5.00,000.00,023.4,022.7,000.0,031.9,025.2,021.7,0000.0,0013.48,0004.07,0003.16
2024-05-05 13:30:00,SystemResetWarning,0822.4,5.00,000.00,023.4,022.7,000.0,031.9,025.2,021.9,0000.0,0014.01,0004.13,0003.17
2024-05-05 13:31:00,SystemResetWarning,0822.4,4.98,000.00,023.4,022.7,000.0,031.9,025.2,022.3,0000.0,0014.01,0004.22,0003.17
2024-05-05 13:32:00,SystemResetWarning,0822.4,5.01,000.00,023.4,022.7,000.0,031.9,025.2,022.3,0000.0,0013.70,0004.25,0003.17
2024-05-05 13:33:00,SystemResetWarning,0822.4,5.01,000.00,023.4,022.7,000.0,031.9,025.2,022.4,0000.0,0014.15,0004.32,0003.16
2024-05-05 13:34:00,SystemResetWarning,0822.4,4.99,000.00,023.4,022.7,000.0,031.9,025.2,022.3,0000.0,0014.60,0004.33,0003.16
2024-05-05 13:35:00,SystemResetWarning,0822.4,4.98,000.00,023.4,022.7,000.0,032.0,025.2,022.5,0000.0,0014.88,0004.29,0003.16
2024-05-05 13:36:00,SystemResetWarning,0822.4,5.00,000.00,023.4,022.7,000.0,031.9,025.2,022.6,0000.0,0014.71,0004.29,0003.17
2024-05-05 13:37:00,SystemResetWarning,0822.4,5.01,000.00,023.4,022.7,000.0,031.9,025.2,022.6,0000.0,0014.59,0004.29,0003.17
2024-05-05 13:38:00,SystemResetWarning,0822.4,5.00,000.00,023.4,022.7,000.0,031.9,025.2,022.3,0000.0,0015.11,0004.33,0003.17
2024-05-05 13:39:00,SystemResetWarning,0822.4,4.99,000.00,023.4,022.7,000.0,031.9,025.2,022.2,0000.0,0014.53,0004.36,0003.17
2024-05-05 13:40:00,SystemResetWarning,0822.4,4.99,000.00,023.4,022.8,000.0,031.9,025.2,021.9,0000.0,0014.46,0004.33,0003.18
2024-05-05 13:41:00,SystemResetWarning,0822.4,5.01,000.00,023.5,022.8,000.0,031.9,025.2,021.9,0000.0,0014.62,0004.30,0003.19
2024-05-05 13:42:00,SystemResetWarning,0822.4,4.99,000.00,023.5,022.8,000.0,031.9,025.2,022.1,0000.0,0014.97,0004.27,0003.21
2024-05-05 13:43:00,SystemResetWarning,0822.4,4.99,000.00,023.5,022.8,000.0,031.9,025.2,022.2,0000.0,0014.83,0004.30,0003.21
2024-05-05 13:44:00,SystemResetWarning,0822.4,5.00,000.00,023.5,022.8,000.0,031.9,025.2,022.3,0000.0,0013.52,0004.28,0003.22
2024-05-05 13:45:00,SystemResetWarning,0822.4,5.00,000.00,023.5,022.8,000.0,031.9,025.3,022.3,0000.0,0013.26,0004.31,0003.22
2024-05-05 13:46:00,SystemResetWarning,0822.4,5.00,000.00,023.5,022.8,000.0,031.9,025.3,022.3,0000.0,0013.98,0004.33,0003.22
2024-05-05 13:47:00,SystemResetWarning,0822.4,5.00,000.00,023.5,022.8,000.0,031.9,025.3,022.4,0000.0,0014.88,0004.37,0003.22
2024-05-05 13:48:00,SystemResetWarning,0822.4,5.01,000.00,023.5,022.8,000.0,032.0,025.3,022.2,0000.0,0014.73,0004.37,0003.23
2024-05-05 13:49:00,SystemResetWarning,0822.5,4.99,000.00,023.5,022.8,000.0,032.0,025.3,022.4,0000.0,0014.49,0004.39,0003.23
2024-05-05 13:50:00,SystemResetWarning,0822.5,4.99,000.00,023.5,022.8,000.0,032.0,025.3,022.6,0000.0,0014.85,0004.38,0003.23
2024-05-05 13:51:00,SystemResetWarning,0822.6,5.01,000.00,023.5,022.8,000.0,032.0,025.3,022.3,0000.0,0014.59,0004.37,0003.23
2024-05-05 13:52:00,SystemResetWarning,0822.4,5.00,000.00,023.5,022.8,000.0,032.0,025.3,022.3,0000.0,0014.07,0004.40,0003.22
2024-05-05 13:53:00,SystemResetWarning,0822.4,5.00,000.00,023.5,022.8,000.0,032.0,025.3,022.2,0000.0,0013.75,0004.37,0003.22
2024-05-05 13:54:00,SystemResetWarning,0822.4,5.00,000.00,023.5,022.8,000.0,032.0,025.3,022.2,0000.0,0013.51,0004.33,0003.23
2024-05-05 13:55:00,SystemResetWarning,0822.4,5.00,000.00,023.5,022.8,000.0,032.0,025.3,022.1,0000.0,0013.61,0004.35,0003.23
2024-05-05 13:56:00,SystemResetWarning,0822.4,4.99,000.00,023.5,022.8,000.0,032.0,025.2,022.4,0000.0,0013.82,0004.28,0003.23
2024-05-05 13:57:00,SystemResetWarning,0822.5,5.00,000.00,023.5,022.8,000.0,032.0,025.2,022.4,0000.0,0013.14,0004.25,0003.25
2024-05-05 13:58:00,SystemResetWarning,0822.5,5.00,000.00,023.5,022.8,000.0,032.0,025.2,022.6,0000.0,0012.39,0004.22,0003.26
2024-05-05 13:59:00,SystemResetWarning,0822.4,5.01,000.00,023.5,022.8,000.0,032.0,025.2,022.7,0000.0,0012.39,0004.23,0003.25
